GFSSW_850_spd_000.txt.gz
Wind_Speed
4 2 2 6 9 10 10 10 10 9 9 7 7 7 5 5 7 5 2 5 7 3 2 6 4 1 2 1 0 2 2 4 5 3 5 14 6 6 5 11 6 5 13 15 12
10 10 11 11 12 12 11 10 10 10 10 7 8 7 4 4 3 2 7 8 3 1 7 1 1 2 3 3 3 4 3 4 10 9 7 13 13 9 5 12 7 9 7 10 11
11 11 12 13 13 12 12 11 11 11 10 8 8 5 3 3 2 3 8 4 2 3 4 2 1 3 6 3 6 5 2 4 6 8 2 12 9 10 8 5 13 15 12 12 12
13 13 14 13 12 11 11 11 12 11 10 8 6 3 2 2 2 4 5 3 2 3 1 3 4 6 5 6 5 4 3 4 2 2 3 10 10 5 9 2 11 16 14 13 12
11 12 12 12 11 11 10 11 10 9 8 7 4 3 1 4 1 8 3 2 2 2 2 4 8 9 5 6 3 8 5 2 3 2 4 9 9 6 5 8 10 14 15 14 13
10 10 10 10 9 8 8 8 8 7 6 5 3 2 3 8 5 7 2 1 2 2 4 4 4 3 9 1 6 3 6 4 4 6 6 6 7 7 15 13 12 14 16 16 15
8 9 8 8 7 6 6 6 6 5 3 3 3 4 5 5 4 3 1 3 5 4 4 5 2 4 2 1 6 4 5 4 9 11 5 9 8 11 16 20 18 17 18 17 17
6 6 6 6 5 3 3 4 4 4 3 1 3 2 6 9 8 5 3 3 3 2 4 7 5 3 2 5 4 6 8 4 11 14 7 10 7 20 21 24 22 21 21 21 21
3 4 4 4 3 2 2 2 2 3 2 3 2 4 3 4 1 4 6 3 4 3 3 3 5 5 3 5 5 7 5 13 7 17 6 11 7 4 27 23 23 24 25 26 23
2 2 2 2 1 0 0 0 1 3 4 5 4 5 6 2 6 5 4 6 5 5 3 5 6 4 6 7 6 7 12 9 10 14 14 11 16 5 18 22 25 26 27 28 28
1 0 0 1 0 0 1 3 5 4 7 9 2 8 4 4 7 5 7 5 6 10 7 14 5 8 12 14 14 2 9 10 7 12 10 14 14 15 24 27 24 29 31 31 30
2 2 2 1 2 2 1 3 3 5 10 16 18 12 8 7 5 8 10 9 10 10 14 6 12 14 10 6 12 9 9 10 9 6 5 9 14 15 19 28 36 32 30 31 29
5 4 3 3 4 2 3 6 7 7 6 5 13 15 11 11 8 12 15 9 9 11 13 12 3 12 6 4 6 9 11 9 8 3 6 8 11 20 16 26 29 36 34 32 32
7 7 6 4 4 3 2 7 7 6 4 7 7 7 10 7 6 12 16 7 8 10 13 11 16 7 7 10 11 12 6 9 4 3 4 7 6 12 12 17 19 29 34 34 32
13 9 7 4 3 3 7 8 7 4 5 8 7 9 8 11 8 9 10 9 8 9 7 3 7 7 8 11 9 7 2 2 5 6 7 10 5 5 8 7 14 20 30 34 33
13 12 9 5 3 7 9 6 6 3 6 6 8 8 8 17 9 8 8 10 4 8 15 12 2 7 11 2 3 9 3 2 3 3 7 12 12 8 10 12 7 14 28 29 32
12 12 10 5 2 7 5 3 4 5 2 6 7 8 13 11 12 11 11 11 9 5 10 13 17 4 7 4 1 4 4 3 4 4 7 5 12 15 6 4 3 7 13 26 27
12 11 10 7 10 6 1 3 6 9 11 4 2 10 9 9 14 16 9 15 18 16 6 10 9 17 15 14 9 12 10 6 6 7 10 4 6 5 7 9 6 15 12 20 24
11 7 11 7 6 6 4 7 4 4 11 13 1 8 11 12 8 16 21 19 15 20 11 10 14 8 12 13 13 8 10 12 10 15 8 7 11 10 7 8 10 17 16 22 26
14 10 11 13 8 10 6 12 11 17 22 17 15 12 16 12 13 9 11 10 26 21 27 8 17 8 8 11 12 10 2 4 5 5 8 8 10 6 6 12 11 10 19 21 26
9 6 4 10 6 10 9 11 17 23 20 9 14 18 21 21 23 15 14 10 11 10 24 19 12 2 7 12 15 6 7 8 4 8 4 10 7 6 6 4 14 10 22 25 28
5 4 2 0 7 10 11 19 25 21 27 14 15 17 18 20 23 24 24 18 19 8 13 19 8 15 19 9 20 18 14 21 8 8 9 15 17 7 3 8 11 19 23 24 26
8 9 5 4 6 9 16 21 25 18 15 17 16 15 15 20 21 17 22 25 29 7 7 4 7 14 18 6 3 11 19 18 20 11 21 16 13 4 5 8 16 16 22 25 27
5 4 5 9 13 14 15 15 17 22 19 14 10 16 16 20 20 22 26 18 32 23 22 5 10 14 18 21 8 9 16 21 21 16 25 21 25 12 7 8 10 18 21 28 29
2 2 10 6 12 19 19 19 22 20 24 26 18 16 16 17 18 21 23 18 21 23 19 6 19 22 25 24 20 19 19 26 26 31 21 24 26 22 15 10 17 30 28 25 29
6 7 10 19 19 18 14 15 21 21 20 18 20 18 19 19 16 19 15 13 9 12 15 19 7 22 25 27 28 29 28 20 28 29 26 24 31 19 11 14 10 23 27 29 32
6 8 7 8 13 12 13 16 20 24 20 27 24 21 17 18 22 17 13 18 18 20 26 13 7 13 20 26 26 27 30 28 21 20 21 23 35 7 14 12 21 24 17 16 22

GFSSW_850_spd_003.txt.gz
Wind_Speed
3 3 4 6 9 11 12 12 11 10 10 8 8 7 7 8 9 5 1 2 5 2 5 9 7 7 6 1 2 1 4 2 4 7 6 16 5 4 6 9 6 6 18 16 20
10 9 9 10 12 12 13 12 11 11 10 9 8 7 6 8 4 3 3 4 5 4 6 4 4 4 1 2 2 3 3 3 2 4 6 12 13 10 6 10 6 14 18 19 21
11 11 11 12 12 12 12 12 12 11 10 9 7 5 5 4 1 3 3 5 5 7 5 7 6 4 3 3 4 4 4 2 2 4 12 17 14 14 12 5 13 19 20 21 21
12 12 11 12 11 11 11 12 12 11 10 8 6 4 4 2 1 1 5 5 5 6 8 5 5 2 2 4 9 1 4 2 2 2 4 10 14 11 12 6 16 18 21 23 24
12 11 10 10 10 9 9 10 10 10 8 6 4 3 4 2 5 5 6 5 5 7 8 5 8 6 3 6 6 4 5 4 6 3 4 10 10 9 10 8 17 23 22 22 22
10 10 9 9 8 8 8 8 8 8 6 4 2 1 1 2 3 7 3 7 7 8 4 11 4 5 6 2 6 3 9 8 6 6 6 5 7 11 15 18 22 24 24 24 25
7 7 7 7 6 5 5 6 7 7 5 2 1 3 5 7 4 7 4 5 6 11 7 8 9 5 3 0 5 3 3 2 8 10 5 3 5 10 14 23 24 24 24 26 28
4 5 4 4 4 3 3 4 6 6 4 1 2 4 6 6 9 8 5 2 2 5 8 8 10 5 3 3 1 3 3 2 5 14 7 11 9 12 24 28 28 28 27 30 31
2 2 2 2 1 0 2 3 4 5 4 3 1 3 7 5 5 6 7 5 2 2 4 3 5 4 2 4 2 2 4 7 4 17 5 6 8 8 18 34 32 31 30 33 33
4 4 4 4 4 4 2 2 3 4 5 8 8 5 8 5 6 7 7 10 7 4 3 5 4 1 1 3 6 7 5 5 6 9 8 8 14 3 21 32 33 35 35 35 38
5 5 5 5 6 6 3 4 5 3 10 9 4 4 3 8 8 8 8 10 7 9 5 9 3 8 11 9 7 3 4 6 6 6 9 14 15 14 23 24 27 35 38 41 43
5 4 4 5 6 7 4 8 6 8 11 16 23 19 11 7 4 9 12 9 7 6 6 2 8 11 10 10 12 12 9 7 7 3 9 8 18 15 14 26 36 39 39 44 42
11 9 8 6 6 5 3 7 9 11 6 10 13 20 17 12 6 12 20 10 6 6 8 8 8 11 11 9 8 12 8 4 6 2 4 5 8 9 14 23 31 38 45 45 47
13 11 8 5 3 4 2 7 9 10 3 4 3 4 13 6 7 16 25 9 6 10 8 9 18 13 6 7 7 8 4 5 7 3 5 5 11 6 10 12 12 33 36 45 44
11 11 10 6 1 2 5 9 8 5 4 3 4 6 6 10 1 4 20 15 6 5 4 9 5 7 8 10 7 7 4 3 3 3 2 3 3 5 7 8 13 19 38 40 45
7 8 8 5 3 5 7 6 7 5 5 3 4 3 4 9 4 3 5 6 4 5 11 8 9 5 8 2 3 7 4 3 4 3 5 7 7 20 8 15 8 7 29 39 41
8 6 5 4 3 6 4 3 4 3 3 2 4 5 6 5 5 6 4 4 6 2 6 4 11 4 6 4 2 3 7 2 3 1 10 11 9 23 7 9 9 8 20 34 39
11 9 5 4 4 2 1 4 1 5 5 6 10 4 6 5 8 10 5 5 8 4 3 5 7 14 9 16 10 11 11 7 8 6 10 6 8 9 15 29 18 20 20 28 35
9 6 5 2 3 4 2 3 7 4 2 8 8 5 4 5 5 7 10 8 8 17 9 5 8 6 8 8 17 7 11 12 3 3 2 6 8 9 5 4 8 17 21 30 33
9 5 2 1 4 3 3 5 4 6 9 6 5 6 6 8 5 6 3 5 10 16 26 7 16 12 7 5 6 8 7 3 3 6 7 8 7 8 11 19 11 8 22 33 33
6 5 6 1 5 3 3 6 5 15 20 5 5 10 6 5 9 8 7 8 4 8 12 16 7 15 2 6 16 5 9 5 5 6 7 9 7 10 17 11 14 18 28 34 35
5 3 6 4 1 3 3 3 13 14 18 11 14 12 13 12 19 18 21 9 22 10 12 8 11 19 28 9 11 16 12 23 8 5 7 15 17 4 9 10 14 21 32 33 33
6 5 4 4 0 3 9 9 20 8 8 7 5 7 9 8 10 6 10 19 23 18 15 8 6 11 14 3 2 7 13 7 19 1 17 17 17 11 16 14 19 23 34 34 33
6 4 5 2 7 4 6 7 5 21 15 19 13 14 10 13 13 10 14 8 25 20 20 12 6 15 17 17 6 7 12 19 15 12 25 22 28 10 6 7 8 20 32 34 36
8 4 6 4 6 13 7 5 11 9 9 18 7 12 14 9 15 13 16 19 12 18 7 5 7 11 21 23 19 21 20 26 26 30 21 29 26 25 18 13 16 26 30 35 37
5 7 7 12 11 8 7 4 12 8 12 6 14 17 14 11 13 15 12 9 8 3 6 2 6 16 24 23 25 26 28 25 27 30 31 32 32 7 17 24 16 28 31 35 38
7 5 6 5 4 5 4 4 15 21 5 24 17 15 14 17 19 23 24 22 17 13 15 6 4 4 11 20 18 20 18 25 25 23 22 23 34 12 20 18 24 23 25 32 37

GFSSW_850_spd_006.txt.gz
Wind_Speed
2 3 5 5 7 11 12 11 11 11 10 9 8 8 8 8 9 7 5 5 1 3 6 6 7 8 5 4 4 1 4 2 4 6 4 13 5 6 7 14 8 13 9 9 28
8 8 7 7 9 11 12 11 11 11 10 9 8 7 7 8 7 7 5 2 2 5 6 7 8 6 3 2 3 3 4 7 4 4 6 14 11 14 8 10 4 10 14 22 31
11 11 10 9 9 10 10 10 10 10 9 8 6 5 5 6 4 4 3 2 4 6 7 7 6 4 3 4 4 4 5 5 4 1 10 12 8 12 13 5 14 23 25 32 32
12 11 10 9 9 9 9 10 10 8 8 6 3 3 5 5 3 3 1 4 5 8 8 9 6 3 2 3 6 3 7 5 4 3 5 7 8 7 21 16 19 21 24 30 35
11 10 10 9 8 8 9 9 8 8 6 4 2 2 4 4 5 3 4 4 7 8 10 6 5 3 3 5 4 4 4 6 6 7 7 8 14 10 21 18 15 22 28 31 33
9 8 8 7 6 6 7 7 7 7 5 3 1 2 4 4 3 3 4 6 9 10 11 7 4 3 7 5 7 5 9 6 8 9 7 5 7 9 17 18 18 29 31 33 35
6 6 5 4 4 3 4 6 6 6 4 3 3 4 8 8 5 3 3 7 9 11 10 8 8 6 3 3 5 4 3 2 7 8 5 5 7 11 16 19 23 34 34 34 35
5 4 3 3 1 1 3 5 6 6 5 4 4 6 6 6 8 9 5 7 5 11 10 8 7 9 4 3 1 4 2 1 5 10 6 10 11 11 23 28 30 33 35 36 36
5 6 5 5 4 3 3 4 6 6 6 7 6 5 7 5 10 7 9 7 4 6 8 7 7 5 3 4 4 3 4 7 7 18 4 7 9 8 21 33 34 38 39 39 38
4 3 3 3 4 4 4 2 4 4 7 10 10 8 8 5 7 6 9 9 7 6 4 6 4 2 2 4 7 7 6 5 6 6 6 8 16 9 10 30 37 41 44 44 43
5 4 3 3 4 4 2 1 2 3 7 10 3 6 4 4 5 6 8 13 11 5 5 6 3 9 13 10 3 4 4 5 4 6 9 15 20 19 22 21 24 33 40 46 48
6 5 4 5 5 3 3 3 4 6 10 13 21 24 15 8 5 8 10 9 6 6 4 0 9 15 6 7 8 8 8 9 8 8 10 9 20 18 8 15 31 40 39 47 47
9 7 4 2 3 3 3 5 7 8 5 8 6 10 20 14 7 9 17 8 6 5 7 6 7 5 9 7 8 11 14 6 9 3 4 4 11 8 9 25 36 40 42 46 52
8 7 6 3 2 2 3 6 7 8 4 5 1 2 9 8 6 13 20 7 3 9 6 7 17 15 6 8 14 16 8 14 10 4 7 6 14 8 7 15 10 32 37 48 51
4 5 5 3 1 1 3 4 5 3 4 1 0 4 4 6 7 1 16 17 5 5 2 8 4 8 15 18 8 9 8 9 6 5 1 5 4 3 4 7 15 16 40 47 48
8 5 3 1 1 2 3 3 3 5 4 1 2 1 2 6 3 2 4 10 2 4 6 11 12 4 5 6 9 4 3 6 4 3 5 10 8 24 9 15 14 19 32 37 38
9 9 5 4 1 2 2 1 5 3 4 1 0 3 4 4 4 7 6 5 5 2 5 5 10 7 9 6 2 4 6 3 4 2 11 11 8 22 8 8 11 15 33 25 29
7 6 5 3 4 4 2 4 3 3 4 3 5 3 7 5 6 2 4 4 6 3 3 4 12 9 9 20 13 9 9 7 8 7 12 6 10 13 12 27 34 33 29 18 25
6 1 3 3 5 2 2 3 5 2 5 8 7 3 3 2 3 2 7 7 8 15 9 5 9 6 4 14 14 9 9 9 7 1 2 6 9 11 8 10 11 20 30 34 29
8 13 11 4 4 2 4 3 4 6 10 4 2 5 4 7 9 7 3 2 4 8 15 4 17 12 11 3 4 10 6 2 0 7 11 10 6 12 5 15 14 10 19 32 33
6 6 8 2 0 2 2 5 4 22 19 6 7 9 10 7 8 6 6 8 10 8 9 4 7 14 3 6 8 2 9 5 5 7 13 16 12 9 17 16 12 12 30 36 37
8 4 7 7 3 3 1 4 10 11 18 6 7 4 3 10 7 6 7 6 16 8 6 4 5 9 14 12 13 19 17 21 13 16 5 15 23 2 7 8 10 21 32 33 34
6 5 7 7 3 4 7 7 9 7 7 5 5 4 9 5 7 3 7 14 16 12 12 9 4 9 14 9 5 5 8 14 11 15 21 19 23 6 11 14 18 16 19 20 28
5 4 5 8 9 4 4 5 6 18 4 10 6 5 10 4 6 10 11 8 23 20 16 4 5 10 10 5 7 10 23 22 12 12 19 22 31 26 12 8 11 23 30 33 33
6 3 4 4 4 6 2 3 4 4 9 12 4 6 6 5 14 8 17 14 7 13 3 3 9 13 18 23 22 21 22 24 23 17 11 26 30 27 21 19 24 33 31 26 29
4 4 3 5 5 5 4 2 3 3 5 6 4 11 11 9 12 16 13 11 9 7 5 6 15 14 18 21 19 20 17 21 24 23 23 23 29 22 33 27 22 27 27 35 34
6 2 2 5 2 2 3 0 5 18 12 12 14 16 13 14 17 24 25 26 18 17 19 14 12 6 19 20 19 15 15 18 15 15 12 18 14 21 20 26 27 27 33 38 44

GFSSW_850_spd_009.txt.gz
Wind_Speed
2 3 4 5 5 6 9 10 10 9 9 8 7 5 5 6 8 8 7 5 4 3 4 4 6 6 4 2 2 2 4 3 5 6 6 8 6 7 9 11 15 14 8 6 26
6 7 7 7 7 9 9 9 8 7 7 6 5 4 4 5 8 10 5 6 5 5 5 5 7 6 2 1 2 3 3 9 6 5 5 9 10 13 8 12 11 15 15 11 29
11 11 10 9 9 9 9 8 8 7 6 5 3 2 3 4 5 5 8 6 6 7 7 5 5 4 0 1 3 3 5 4 4 5 9 9 7 11 8 5 17 28 26 22 33
11 11 10 9 8 8 8 8 8 6 5 3 1 2 4 5 4 3 4 6 6 7 6 6 4 3 1 3 4 2 7 5 3 5 4 6 8 7 19 20 13 26 26 30 36
10 10 9 8 6 6 6 6 6 4 3 1 1 3 3 5 7 4 3 3 6 7 7 6 4 3 3 4 2 3 4 6 9 8 7 6 12 12 19 29 22 15 27 32 36
9 8 7 6 4 4 4 4 4 4 3 2 3 4 4 5 3 5 5 5 7 8 9 7 3 2 4 5 4 3 10 8 9 10 8 6 8 9 16 26 25 21 30 34 37
7 6 5 4 2 2 2 3 4 5 4 3 5 7 8 12 4 3 4 4 7 7 9 7 6 4 3 5 6 3 3 4 7 6 5 8 9 12 34 18 27 27 32 37 41
5 4 3 3 1 0 2 4 6 6 6 6 6 9 7 5 9 10 6 5 5 9 9 5 4 6 5 7 4 0 2 2 4 8 7 9 14 8 30 30 29 31 35 40 41
3 3 3 2 1 1 2 4 5 7 8 8 8 7 7 5 9 7 10 5 4 5 6 6 4 4 3 4 5 4 4 7 8 15 4 8 9 9 13 31 32 35 38 42 43
4 4 3 3 2 2 2 3 4 6 8 10 13 7 5 2 4 5 6 6 3 3 3 4 3 0 2 3 8 7 6 5 6 3 4 5 15 13 9 21 35 38 39 43 46
5 4 3 3 3 3 2 1 2 3 9 8 2 3 2 1 2 3 4 7 5 2 3 1 2 11 14 11 3 4 4 6 5 6 8 10 18 22 22 19 26 32 39 44 48
4 3 2 2 2 1 2 2 3 4 8 11 17 23 17 3 4 6 7 7 5 5 2 3 8 9 3 6 6 5 6 9 8 8 8 10 20 18 14 13 32 35 37 47 49
4 3 1 0 2 2 2 3 4 6 3 6 4 5 5 15 6 6 11 6 5 5 7 7 8 3 6 7 6 12 14 8 13 7 5 4 20 9 11 25 30 38 48 44 51
4 4 2 0 2 1 2 5 4 5 4 4 1 1 3 6 4 6 16 9 3 6 5 6 15 16 6 6 12 15 8 13 12 3 9 4 15 7 6 14 13 30 37 46 50
7 5 4 1 1 1 2 5 5 3 4 0 1 2 5 5 4 1 9 13 6 4 5 9 4 5 7 15 6 7 7 9 7 6 2 5 4 2 3 7 11 14 38 45 47
8 6 3 2 1 0 4 4 2 5 4 2 2 3 2 3 3 2 2 11 3 4 5 14 11 5 8 4 9 3 3 2 3 4 7 10 8 28 11 13 11 16 32 40 40
9 5 3 2 0 4 6 3 5 3 5 4 5 4 1 3 3 3 3 3 4 3 5 5 6 6 17 13 3 4 5 4 4 2 15 9 9 22 4 6 9 15 32 36 36
4 1 2 2 2 3 3 4 1 3 5 4 6 4 4 3 3 3 1 3 6 4 3 6 12 7 3 13 11 11 13 9 6 7 15 5 10 13 10 15 21 30 39 43 44
8 10 9 7 4 2 2 4 1 4 6 8 8 4 3 2 6 8 2 4 4 3 4 6 7 7 3 5 7 5 7 15 11 21 5 12 16 13 11 9 12 22 32 37 40
12 14 12 6 6 5 4 1 3 5 6 3 2 4 4 7 7 9 2 3 6 8 10 6 16 7 6 3 3 6 4 3 2 9 21 14 6 12 6 7 11 11 21 36 34
5 5 8 5 4 5 3 1 3 11 15 6 3 5 2 4 3 3 6 4 9 10 8 5 5 11 5 3 13 10 6 4 4 7 17 19 14 7 14 16 17 12 26 31 33
5 4 8 5 5 4 3 5 7 8 11 5 3 2 2 5 4 5 7 2 12 12 6 6 7 17 24 20 16 16 9 3 4 15 6 14 24 3 4 8 8 15 33 39 40
5 3 10 5 4 3 6 5 3 5 4 5 4 6 6 3 5 4 6 14 16 12 4 3 2 9 17 7 7 6 11 15 15 7 14 14 15 12 21 27 36 33 39 35 36
4 3 7 11 9 5 3 4 5 6 1 5 4 4 5 1 4 6 11 7 21 19 23 19 6 13 16 19 15 25 26 22 14 8 14 16 22 32 30 24 21 38 45 45 45
7 4 4 4 6 4 2 2 3 4 6 7 5 4 3 4 10 8 14 16 10 24 9 4 14 14 20 23 23 26 26 21 24 20 15 27 25 26 22 18 12 25 35 45 45
5 5 4 5 6 4 2 2 2 0 2 4 5 6 7 6 11 20 10 9 8 11 10 4 16 20 24 24 24 26 26 27 24 29 25 27 27 22 33 20 21 23 28 34 35
7 4 2 2 2 1 3 4 4 6 10 9 11 11 12 18 18 22 28 28 24 18 20 12 8 8 20 24 20 15 25 24 22 27 20 17 7 9 13 19 23 26 30 24 36

GFSSW_850_spd_015.txt.gz
Wind_Speed
5 5 6 7 7 6 8 8 8 6 6 5 3 2 3 3 3 3 1 3 3 5 5 4 4 4 3 2 3 4 2 3 5 6 4 7 7 9 10 10 15 13 14 10 9
7 8 8 7 8 9 8 7 7 5 4 3 2 1 2 2 2 1 2 2 4 6 5 3 2 1 1 1 2 3 3 8 5 5 4 6 11 10 7 11 10 18 21 18 14
14 15 13 12 11 10 8 7 6 5 4 3 1 2 3 2 2 4 1 3 5 6 4 2 2 1 1 1 1 2 4 3 4 12 8 4 4 8 9 6 15 24 28 25 20
15 15 14 12 10 9 8 7 6 5 4 3 4 5 4 2 3 3 3 4 6 5 3 2 2 2 3 3 2 3 6 6 5 4 4 4 4 5 20 22 17 26 23 24 26
14 13 12 11 9 8 7 7 5 4 4 3 4 6 4 2 2 1 3 5 4 3 2 1 2 1 1 3 4 3 4 8 12 14 11 10 11 12 15 23 29 19 17 23 26
10 10 9 8 8 7 6 5 4 3 2 1 3 4 3 2 1 1 2 4 3 1 1 1 3 1 1 2 1 4 10 15 11 13 10 6 12 13 7 11 23 29 31 28 29
6 6 6 5 5 5 4 4 3 3 1 1 3 5 4 2 2 1 1 4 3 1 1 1 0 2 2 4 6 6 6 7 9 8 7 5 10 15 28 30 30 28 29 32 35
5 4 4 4 3 2 1 1 2 2 2 3 5 7 2 2 3 5 4 4 4 3 1 1 1 3 2 4 5 4 1 5 3 2 4 8 15 13 14 19 29 33 37 38 37
4 4 3 3 3 2 1 1 2 2 3 4 5 4 2 3 2 1 3 3 2 2 1 2 2 1 0 2 3 4 5 4 9 4 3 7 8 6 4 8 19 24 26 30 33
4 3 3 3 2 1 1 1 1 2 3 5 6 4 1 2 3 2 1 0 1 1 1 1 1 2 2 3 5 3 4 4 6 2 3 8 17 20 29 22 27 35 37 36 34
5 4 2 2 2 3 2 3 1 1 1 1 1 2 2 2 1 1 1 1 1 2 2 2 1 6 9 6 3 2 4 10 16 12 9 18 22 20 32 18 24 33 38 40 39
6 4 3 2 2 4 4 4 5 2 1 4 4 9 10 5 3 2 3 2 2 2 2 3 8 6 3 4 6 7 9 14 12 11 7 12 26 20 19 31 31 32 35 41 47
5 5 5 3 4 4 7 6 4 6 2 3 3 4 3 2 4 2 4 2 2 3 4 5 1 8 4 3 5 4 7 8 13 12 8 11 19 10 9 21 28 28 38 39 37
2 3 5 4 3 3 4 5 3 5 4 7 5 4 4 3 2 2 5 2 1 2 4 5 4 2 3 7 7 6 12 15 11 5 6 5 16 7 11 16 5 18 27 31 31
3 2 2 3 3 3 3 5 3 1 3 4 3 3 6 1 5 4 2 3 4 4 3 6 2 3 4 6 5 7 1 4 3 5 6 6 6 18 5 9 12 14 23 29 24
3 4 4 3 4 3 4 3 1 5 1 4 5 7 6 5 5 6 2 4 4 1 2 7 7 5 5 2 6 2 2 1 2 2 8 10 10 27 6 3 6 9 16 24 22
6 5 5 4 2 2 4 2 4 5 5 7 4 6 4 6 6 8 5 6 4 7 4 5 4 3 2 1 4 2 3 4 3 3 7 3 9 21 7 18 7 10 27 31 37
10 8 8 6 2 1 1 4 6 0 2 3 4 5 4 7 4 8 4 4 9 5 3 4 5 1 2 3 5 6 4 2 7 8 14 6 12 12 3 9 16 17 22 27 34
8 8 10 8 4 2 1 6 2 1 3 5 5 5 4 4 5 7 5 3 6 8 4 6 5 6 19 6 5 3 1 4 8 18 13 13 18 14 17 9 21 25 32 36 32
5 8 12 8 5 3 6 5 3 3 4 2 2 3 3 6 6 6 3 4 3 10 5 2 12 9 3 8 7 5 5 6 3 16 22 18 22 16 16 17 22 28 39 39 35
1 3 11 8 6 9 4 2 3 4 8 4 1 3 3 4 3 2 3 7 8 8 6 3 4 8 13 4 9 11 10 10 10 10 15 20 11 2 19 18 24 36 42 37 34
3 4 15 5 8 5 3 2 3 5 11 6 4 4 3 4 2 2 2 4 12 10 5 5 5 11 20 19 18 11 4 7 5 12 16 13 19 22 19 31 45 41 41 45 42
5 4 18 4 4 3 3 3 6 7 7 5 4 6 4 2 4 2 2 5 15 13 7 4 3 10 7 2 2 9 17 17 15 9 17 15 14 23 38 32 33 34 42 38 44
4 3 10 16 10 5 2 3 3 7 5 5 5 8 5 4 3 4 4 5 24 21 21 13 5 11 12 17 15 18 20 19 18 12 17 19 29 27 30 28 24 26 29 31 32
6 4 4 3 7 6 3 2 2 4 7 13 5 7 5 3 3 3 2 14 8 15 9 2 6 14 16 18 19 22 22 25 21 21 18 25 24 26 20 21 30 25 28 29 31
6 4 6 4 3 3 5 4 3 3 4 3 4 3 2 4 7 15 12 8 11 4 9 4 14 14 19 19 20 19 23 22 20 20 17 18 19 9 18 30 27 30 29 31 34
10 7 3 3 2 3 0 2 2 2 1 3 1 3 6 11 11 14 22 26 25 18 18 9 8 8 13 15 12 11 15 10 20 20 17 15 18 10 19 26 30 31 32 29 31

GFSSW_850_spd_018.txt.gz
Wind_Speed
6 6 6 8 8 6 6 7 7 6 6 4 3 2 2 1 0 1 2 1 1 4 6 5 4 3 1 1 1 1 5 12 15 12 14 5 9 6 6 13 8 10 11 7 6
8 10 10 9 8 10 9 9 8 7 6 4 2 1 1 1 3 4 2 1 2 4 5 4 3 2 1 1 1 4 5 12 7 9 10 10 12 10 7 13 15 16 16 17 13
14 16 15 14 13 12 11 11 9 8 7 5 3 3 3 3 6 4 2 1 3 4 4 3 4 2 2 2 2 2 6 5 5 8 9 10 10 8 10 14 18 19 21 17 18
16 16 15 14 13 12 10 10 9 8 7 5 5 4 4 4 2 2 4 4 3 3 2 2 2 2 1 2 1 5 7 8 7 5 6 12 11 14 18 23 12 13 17 15 19
14 14 13 12 12 11 10 9 8 7 6 5 5 5 5 3 3 3 2 4 4 2 0 1 2 2 4 2 3 8 8 8 11 13 15 15 21 21 21 20 20 18 22 16 20
10 10 10 10 10 9 9 9 7 6 4 4 3 3 4 3 3 2 1 3 2 2 0 1 1 2 3 4 5 3 11 17 15 18 14 14 23 18 12 11 18 21 24 22 23
8 8 7 6 6 6 6 6 5 4 3 2 3 4 3 2 3 2 2 4 3 1 0 1 2 2 1 3 4 7 11 13 14 11 10 7 18 17 20 20 26 25 25 25 26
6 6 6 5 5 4 4 4 3 3 2 1 2 4 2 1 1 4 3 3 3 2 2 2 2 2 3 4 5 7 7 8 4 3 2 6 21 16 7 8 13 16 18 22 26
5 4 4 4 4 4 3 3 3 2 1 1 2 4 4 2 3 1 2 1 1 0 1 3 2 2 2 5 7 3 11 12 14 3 4 10 17 12 6 10 21 25 27 25 24
3 3 3 4 4 4 3 3 3 2 0 1 1 2 3 2 3 2 2 3 2 2 2 2 2 4 4 5 9 11 12 14 14 4 7 18 25 27 34 29 30 32 31 32 33
4 3 3 3 3 3 4 5 3 2 2 2 2 3 3 2 1 1 2 1 1 2 3 1 5 8 10 8 11 12 13 18 20 21 22 21 23 24 32 32 30 33 33 33 35
4 4 3 3 3 5 5 4 4 3 4 7 3 2 5 5 2 1 2 2 1 3 2 5 8 7 2 4 8 11 15 18 17 13 14 19 29 28 27 30 31 26 26 28 27
3 4 4 5 6 7 6 5 4 4 2 4 5 4 3 3 0 2 1 0 3 3 5 8 3 1 4 6 8 11 13 16 19 20 16 18 23 10 9 9 12 13 18 23 22
3 3 4 7 4 5 4 3 3 3 3 4 4 5 5 4 2 4 1 1 2 3 3 7 2 4 5 10 9 13 5 11 14 11 10 12 16 16 6 2 3 10 16 20 21
6 5 4 5 5 3 1 2 2 2 3 4 3 3 6 3 3 4 2 1 5 4 3 3 7 8 11 8 3 11 7 11 14 16 16 12 8 3 11 9 11 20 20 20 21
7 7 5 5 5 3 2 2 2 3 2 2 3 6 3 7 3 6 2 2 3 5 6 14 10 6 6 8 7 12 10 14 9 9 7 8 14 12 7 3 15 16 21 23 26
7 7 6 5 4 1 1 2 3 2 0 3 3 6 3 6 5 8 5 9 6 8 3 11 4 0 6 3 1 10 11 7 5 5 9 3 9 18 20 12 15 17 25 36 38
9 6 5 3 2 0 1 3 4 2 3 2 4 3 2 9 3 6 2 3 11 8 9 6 1 4 5 10 7 10 5 6 9 11 18 18 14 10 12 10 16 21 24 32 40
8 6 7 4 2 1 2 1 4 2 2 5 2 0 2 1 7 6 6 4 8 14 7 7 3 10 14 8 4 4 6 10 14 21 18 15 21 23 17 13 35 38 40 46 41
7 6 11 4 2 3 1 5 3 5 5 2 3 5 3 7 6 8 3 6 4 10 9 3 10 5 5 11 7 8 11 9 7 8 13 14 23 21 20 28 29 35 48 50 46
1 2 12 4 5 6 3 5 5 6 8 6 4 3 4 5 5 5 5 4 7 8 5 8 5 5 13 6 15 14 7 5 6 9 12 18 14 19 29 32 32 37 41 42 43
2 2 11 4 3 5 4 4 2 6 10 6 5 6 4 5 3 3 2 3 7 8 5 5 6 12 20 16 5 3 8 9 9 19 18 19 26 26 26 33 36 37 34 38 39
4 3 16 5 3 4 5 5 8 7 8 5 4 7 4 2 4 3 1 4 6 8 6 7 2 8 3 6 9 4 17 16 18 14 22 19 18 22 35 35 35 37 38 33 35
4 2 9 15 8 6 6 4 4 7 6 7 4 3 2 2 2 3 4 1 9 15 16 9 9 13 12 17 17 23 21 21 19 14 22 19 27 25 27 26 32 33 33 34 36
6 5 3 3 7 8 4 2 5 2 3 4 3 5 3 3 6 4 4 7 15 7 5 5 8 13 17 22 23 25 22 24 23 23 21 25 26 24 24 23 31 29 36 38 36
5 4 6 5 3 5 2 2 3 3 1 2 4 2 4 5 6 8 11 9 10 4 3 8 10 13 19 23 24 23 22 25 24 21 25 24 25 22 29 28 30 32 32 37 35
10 9 5 2 2 2 2 3 3 1 3 3 2 5 8 8 7 13 17 20 20 16 16 13 7 8 16 16 17 14 16 13 16 21 21 19 22 23 18 27 35 34 34 31 30

GFSSW_850_spd_021.txt.gz
Wind_Speed
4 7 9 9 8 8 5 8 8 7 6 5 3 2 1 1 2 3 2 5 2 3 6 7 4 3 2 3 3 3 5 11 14 15 14 13 8 15 8 13 12 11 14 6 4
8 9 9 9 8 9 10 10 9 8 7 5 4 2 2 3 5 3 2 1 1 3 4 4 2 3 2 3 3 6 8 11 9 11 11 16 16 15 17 16 17 16 16 9 8
13 13 14 14 13 12 12 11 10 9 7 6 5 3 4 6 4 2 1 1 2 3 3 3 3 2 3 3 5 3 9 9 9 8 12 15 18 17 18 17 20 21 18 17 14
14 16 15 14 13 12 12 11 10 9 7 6 5 4 5 7 0 2 2 2 3 3 3 3 2 3 3 6 4 9 15 13 11 10 12 15 18 21 17 23 22 22 15 15 15
12 12 13 13 12 12 11 10 9 8 6 5 4 4 7 2 4 2 1 4 6 5 3 3 4 4 6 4 8 13 14 12 14 15 18 19 21 21 23 24 23 20 19 17 19
9 9 9 9 10 10 10 9 8 7 6 5 4 3 2 4 2 1 2 5 4 4 3 3 3 4 9 8 8 9 14 21 22 20 19 19 22 19 21 17 17 17 20 23 23
8 7 7 7 7 7 7 7 6 5 4 3 3 4 1 4 3 2 2 3 4 2 2 2 3 4 6 8 6 12 16 17 21 18 9 9 15 15 17 13 17 20 21 21 23
6 6 6 6 6 6 6 6 5 4 2 2 3 5 2 1 2 2 2 3 4 3 2 3 3 5 6 8 9 11 11 11 1 4 2 3 19 16 12 9 16 16 18 19 20
4 5 5 5 5 5 5 5 4 3 2 2 4 1 4 3 2 1 1 2 2 2 3 3 3 6 6 7 11 11 10 13 13 3 2 6 17 14 14 21 24 28 28 28 28
3 3 3 4 4 4 5 5 4 3 2 4 4 2 3 1 1 2 1 1 2 3 4 2 4 6 7 7 9 15 17 18 18 14 11 20 25 25 32 27 28 29 28 27 26
3 3 3 3 4 4 7 7 2 3 3 2 2 4 5 2 4 2 1 3 3 4 7 1 6 9 12 12 14 14 15 19 19 18 18 18 20 25 31 29 27 27 25 21 18
3 3 4 4 6 6 5 1 2 5 5 6 5 3 2 3 1 0 2 3 3 7 5 7 10 7 6 6 8 12 16 19 18 13 19 20 25 28 26 21 9 10 9 10 14
4 4 5 7 7 5 4 4 5 9 2 4 5 5 3 3 2 3 2 3 6 7 5 9 11 2 6 8 12 14 16 18 18 20 21 19 17 9 12 12 8 24 27 27 24
5 4 7 8 5 5 1 2 2 5 5 4 1 3 2 1 2 2 2 2 4 6 7 9 3 3 9 13 12 15 6 12 17 15 10 17 10 13 7 10 20 22 25 25 26
6 5 7 6 3 1 2 1 1 1 4 3 4 1 3 3 2 2 3 2 7 9 4 2 7 11 12 10 8 12 10 15 17 17 18 16 8 3 9 10 14 18 22 23 27
7 6 6 4 2 3 1 1 2 4 2 4 2 4 3 5 3 5 2 2 6 7 9 13 12 5 9 12 8 11 13 19 20 11 8 12 11 6 5 10 13 13 17 21 29
6 5 4 5 4 1 1 1 5 4 3 4 2 5 3 5 2 5 3 10 8 8 2 12 1 5 7 11 5 7 15 7 6 6 7 6 9 12 9 17 15 17 23 29 35
9 5 3 2 3 1 1 5 5 4 5 2 3 3 3 9 3 6 7 1 12 12 9 6 3 2 9 7 8 15 8 6 8 9 16 22 11 8 7 18 15 25 28 32 33
7 5 4 1 1 2 4 4 6 5 4 6 2 3 3 1 6 6 7 5 6 11 8 6 4 4 12 6 7 6 7 9 11 19 17 11 15 17 6 22 36 40 39 37 36
5 3 7 2 3 3 4 5 4 5 5 3 3 4 3 6 5 6 2 5 3 8 9 4 9 8 2 7 11 8 6 6 6 7 11 12 20 17 17 28 30 34 42 43 41
2 2 8 3 5 3 1 5 7 6 4 5 3 2 3 4 5 5 3 4 2 5 6 8 7 4 10 11 12 13 13 8 9 9 9 16 13 13 29 22 28 33 37 38 32
1 1 6 4 2 4 4 4 2 3 5 4 4 5 3 3 4 3 2 2 3 6 7 4 6 9 17 16 9 8 9 1 4 11 15 16 25 23 21 33 32 34 36 33 33
2 3 8 3 1 4 7 5 6 2 5 2 2 4 2 2 4 2 2 4 1 7 6 7 2 7 5 5 5 4 8 9 16 15 23 17 17 23 31 29 35 35 34 32 34
1 1 6 11 7 9 8 4 4 5 5 4 2 0 2 3 2 4 4 1 1 8 10 7 9 12 10 15 17 21 22 21 20 13 21 19 29 26 25 25 31 31 33 34 35
4 4 2 3 7 7 5 2 5 2 2 1 2 1 3 3 6 4 2 6 9 1 5 4 9 13 16 18 20 23 23 23 24 24 23 26 28 26 24 22 28 33 32 33 36
3 3 6 6 3 4 2 3 2 2 2 1 3 1 4 5 6 8 10 9 7 4 2 6 9 14 18 19 20 24 23 25 24 25 26 26 27 24 29 31 30 28 34 38 36
8 10 3 1 2 2 2 4 4 2 2 1 1 5 7 7 9 12 13 15 16 12 12 11 6 8 10 10 19 18 12 12 18 22 21 24 25 24 22 25 28 32 37 38 36

GFSSW_850_spd_024.txt.gz
Wind_Speed
8 10 11 12 10 6 5 7 8 9 8 6 5 4 3 3 7 6 2 4 4 2 6 9 7 5 3 3 2 3 2 5 9 8 7 17 12 15 10 6 12 15 6 5 5
6 7 8 8 8 8 9 10 10 9 8 7 6 5 4 5 8 2 5 3 1 1 7 3 2 4 4 3 3 3 3 5 7 8 7 15 15 16 16 15 19 19 16 15 14
9 10 10 11 12 11 11 11 11 10 8 7 6 5 5 8 4 2 2 2 1 1 3 3 4 4 5 3 6 4 3 6 13 13 12 14 17 17 16 8 15 17 20 11 13
10 12 14 13 12 12 11 11 11 10 9 7 6 6 7 6 1 4 0 1 1 2 6 3 3 5 3 5 4 3 12 17 13 13 14 13 19 17 21 22 20 20 20 17 10
11 12 13 13 12 12 11 11 10 9 8 7 6 7 9 1 3 1 0 2 6 7 3 2 4 4 6 7 8 10 15 19 13 16 17 19 18 15 22 26 25 23 23 19 20
10 9 9 10 10 10 10 9 8 8 6 5 4 6 3 2 1 1 1 6 3 4 3 4 4 6 8 10 7 11 15 20 23 24 22 16 15 16 23 22 20 17 17 17 21
8 8 9 8 8 8 8 7 7 6 5 4 4 5 2 3 2 1 2 3 4 2 1 3 4 5 10 8 7 10 12 13 21 22 7 6 8 11 25 18 15 13 17 21 22
6 6 7 6 6 6 6 6 6 5 5 4 5 6 2 1 1 2 3 3 6 4 3 4 3 5 4 10 7 6 8 4 5 5 6 8 9 10 13 9 11 14 19 23 23
4 4 5 5 5 5 5 5 5 4 4 4 7 4 5 6 4 2 0 2 4 4 5 3 3 4 4 5 6 7 5 9 8 7 2 6 10 8 15 24 26 25 23 23 21
4 4 4 4 4 5 5 6 6 6 6 6 7 0 3 2 2 3 2 2 2 5 6 3 4 4 6 5 5 11 12 12 12 8 11 10 15 12 24 21 23 22 19 17 12
4 4 4 5 5 7 11 7 3 5 3 1 3 5 5 1 5 1 3 5 4 6 4 4 3 6 9 7 8 8 11 13 13 13 12 9 16 20 28 23 19 15 27 33 31
4 4 4 5 7 8 6 2 0 6 4 5 5 4 1 1 1 1 4 4 2 6 6 5 7 5 6 5 5 8 13 14 12 10 13 11 18 22 23 8 32 31 33 33 35
4 4 6 8 8 7 3 3 5 8 3 3 3 4 1 2 2 5 5 5 7 6 5 5 9 3 4 6 11 11 12 10 13 15 14 10 8 2 16 31 33 32 30 33 34
5 5 10 11 7 5 2 2 3 6 4 5 3 1 1 1 2 3 5 4 3 4 7 8 5 2 7 10 10 9 9 11 12 11 4 10 6 9 10 17 18 21 24 27 30
6 6 10 4 7 2 4 1 2 3 3 2 4 1 0 2 2 1 6 3 6 10 4 5 8 6 7 8 10 6 9 13 15 13 11 10 4 6 17 14 12 16 24 26 24
8 7 8 5 1 2 1 1 2 3 1 4 3 3 5 4 3 3 2 4 10 8 9 12 15 4 2 9 8 9 11 17 17 8 5 9 10 4 4 13 10 16 22 26 25
8 7 4 8 6 2 0 3 3 3 2 4 2 3 4 5 1 5 3 10 6 8 5 11 1 6 8 9 2 9 11 4 2 2 5 14 6 4 16 15 18 16 24 29 30
8 6 3 1 3 2 2 4 4 3 6 1 1 4 3 7 4 5 7 5 12 9 5 6 2 4 5 3 6 12 5 4 5 4 8 19 4 6 17 24 21 23 23 22 24
8 8 3 2 2 3 3 3 5 6 4 5 5 5 5 3 4 5 6 4 6 10 7 6 2 6 8 4 4 8 4 4 5 9 10 6 6 19 15 17 22 28 26 26 27
7 2 9 2 2 3 4 4 4 5 5 4 4 3 4 5 5 5 1 4 3 8 10 4 7 8 6 3 8 5 3 2 3 5 5 4 7 4 23 21 24 25 25 31 33
5 2 7 5 2 4 3 5 5 6 6 7 4 2 3 4 4 4 6 5 4 7 11 5 3 2 12 3 8 5 7 7 5 6 4 5 6 7 16 18 23 30 29 28 20
2 1 3 1 3 6 4 3 3 3 4 5 4 6 5 4 3 2 3 5 4 7 5 6 4 5 8 9 7 4 7 8 1 5 4 3 17 19 13 27 27 28 27 21 24
3 3 5 4 1 5 7 5 6 2 6 3 3 6 4 3 3 1 5 8 6 7 6 7 2 5 4 4 4 2 3 3 8 4 15 11 12 15 29 29 32 31 20 23 24
2 1 5 9 8 11 8 6 4 5 4 5 3 1 3 2 3 2 3 4 6 3 1 2 4 6 5 10 14 15 13 14 14 10 16 17 26 21 22 25 28 22 24 24 26
5 3 3 2 5 8 6 3 7 3 2 0 3 3 3 2 4 5 1 5 5 7 2 3 6 9 11 15 16 18 19 18 17 18 18 24 25 24 18 19 24 26 24 24 31
4 1 5 5 1 6 2 3 4 4 1 5 2 4 1 3 3 6 9 7 6 5 1 2 4 9 12 16 16 18 18 19 19 20 21 20 22 17 22 28 26 23 24 26 31
8 6 3 1 1 4 2 5 5 3 2 2 2 2 5 4 6 9 11 12 12 8 7 5 3 5 4 7 17 14 4 6 13 16 13 16 18 18 14 20 25 28 29 31 27

GFSSW_850_spd_027.txt.gz
Wind_Speed
10 10 9 9 8 6 5 7 10 11 10 9 8 7 5 6 9 6 3 2 2 1 5 5 5 6 2 1 1 1 3 2 4 4 6 11 10 14 18 10 10 8 11 17 12
8 10 10 9 8 8 10 11 11 11 11 10 8 7 6 8 7 5 3 3 2 3 2 4 3 1 3 3 3 3 3 6 5 2 4 10 8 16 12 20 19 17 17 7 14
7 8 8 9 10 12 12 12 12 12 11 10 9 7 8 9 6 1 2 3 2 2 1 4 2 4 3 5 4 5 5 4 12 15 10 8 11 10 11 7 19 17 14 7 16
8 9 12 14 13 13 13 13 12 12 11 9 8 8 10 6 4 1 1 1 1 4 4 4 4 3 3 3 6 3 10 13 10 17 8 6 13 11 18 29 24 22 17 15 13
10 11 12 13 13 13 13 13 11 11 10 8 7 8 9 3 1 1 1 2 4 7 5 2 5 4 2 5 7 3 7 11 15 24 20 16 14 12 21 30 26 22 18 16 17
10 11 11 11 12 12 12 12 11 10 9 7 6 9 4 2 1 1 1 2 3 5 3 2 2 3 5 5 2 6 12 18 20 25 18 14 17 8 17 26 26 19 16 13 17
9 9 9 9 10 10 10 9 9 9 8 7 6 7 5 5 3 1 1 3 3 2 5 4 4 3 5 5 10 11 7 8 16 14 6 4 4 6 16 11 11 9 9 15 22
7 7 8 8 9 8 8 8 8 8 8 7 7 5 3 2 1 2 1 3 6 4 3 4 4 5 4 8 7 3 1 3 7 5 0 3 9 7 12 15 17 21 21 20 21
6 6 6 6 7 7 7 8 8 8 8 8 6 5 2 3 1 2 1 2 3 3 7 4 4 2 3 1 5 4 3 4 9 12 0 3 10 9 11 15 17 16 9 27 26
6 6 6 7 7 7 8 9 11 11 9 8 7 2 2 2 2 2 4 3 2 3 7 4 2 2 4 4 3 4 5 4 6 6 9 8 9 12 25 15 17 30 29 30 33
6 6 7 7 8 10 12 9 5 5 4 3 2 8 5 1 3 2 7 4 4 4 1 4 4 4 3 1 3 4 3 7 7 7 6 7 10 18 21 26 28 29 30 29 29
6 6 7 8 9 10 6 4 4 5 6 8 7 3 1 2 1 1 5 3 3 3 7 4 3 4 1 3 4 6 6 8 7 7 7 8 14 13 22 21 24 23 26 30 30
6 7 8 11 12 7 6 3 6 7 4 3 4 2 1 2 4 5 5 5 3 3 4 3 3 4 2 5 6 4 3 4 5 7 5 3 7 5 8 20 24 26 27 29 29
6 10 13 12 8 5 2 2 3 4 4 1 1 1 2 3 2 4 7 4 4 2 5 5 2 4 5 3 5 4 3 5 7 6 2 6 4 5 6 8 13 25 29 27 28
8 12 11 5 8 2 1 1 3 5 2 1 1 1 1 1 2 3 6 3 3 4 4 6 2 2 2 1 3 7 5 7 8 4 2 4 2 3 8 8 9 18 26 26 22
9 10 8 7 3 2 0 2 4 4 1 2 2 4 1 3 3 2 5 6 3 3 3 8 7 3 2 3 4 6 6 12 4 4 2 6 7 1 3 3 7 13 22 22 26
10 9 6 5 2 1 1 2 4 4 1 2 2 4 3 3 2 3 5 8 5 6 7 7 3 4 7 5 8 11 6 4 5 2 5 5 4 4 5 9 11 13 16 18 22
9 7 5 3 3 2 2 4 3 4 5 1 1 4 3 5 3 4 5 3 9 5 2 4 4 3 6 3 2 4 2 3 4 3 4 13 4 6 9 15 15 16 18 16 20
11 9 8 2 2 2 2 5 2 3 4 5 7 2 2 1 3 5 5 3 4 6 4 6 4 4 5 2 2 4 3 4 1 4 1 4 4 2 6 5 14 17 23 18 19
8 4 9 4 3 3 4 5 3 4 5 4 2 2 3 3 3 5 3 5 3 7 9 3 5 4 2 2 4 3 3 4 3 3 5 6 4 4 6 7 11 19 25 25 10
5 1 7 4 3 5 4 3 3 6 5 4 4 4 5 4 4 5 3 4 6 5 11 4 2 7 6 3 1 4 3 2 2 4 5 4 6 6 3 12 22 37 42 38 22
3 3 3 5 3 6 3 2 4 3 6 6 4 6 3 4 3 3 3 3 3 3 3 4 2 4 7 4 4 3 2 2 4 6 3 3 9 8 14 29 34 30 29 22 15
3 4 6 5 3 2 4 4 7 3 5 4 3 5 3 2 2 3 5 7 5 3 2 3 2 4 5 5 6 4 4 3 2 2 6 3 9 11 32 31 34 33 23 16 15
2 2 6 9 8 7 5 3 2 4 3 5 3 1 0 1 2 2 2 6 6 5 6 3 2 6 6 4 2 7 5 6 3 2 10 15 22 22 21 23 29 22 18 21 22
4 3 3 2 7 9 5 4 4 1 2 1 2 5 3 1 2 2 2 3 5 7 7 5 3 4 10 9 10 15 17 14 13 13 10 25 22 20 15 8 11 21 25 26 28
4 3 5 3 3 6 3 2 4 2 2 2 2 6 3 2 1 2 2 1 3 5 3 2 3 3 9 9 12 15 14 18 17 16 16 18 18 8 20 21 19 25 25 28 33
8 6 2 1 3 3 1 2 3 7 2 5 5 3 1 2 2 5 6 7 5 1 0 1 0 3 5 5 10 8 5 2 3 3 6 12 15 4 8 17 21 27 28 30 29

GFSSW_850_spd_033.txt.gz
Wind_Speed
12 12 13 12 12 10 8 8 11 14 14 13 11 9 7 5 5 6 4 3 1 1 1 1 2 0 1 2 1 2 4 2 4 4 4 6 7 3 10 7 18 5 10 12 16
13 12 12 12 12 9 9 10 13 14 14 12 10 9 7 6 6 4 2 3 3 3 1 1 1 1 1 1 1 3 3 6 4 2 3 8 5 12 7 19 7 19 16 18 13
14 14 11 12 11 10 11 12 14 14 13 10 10 8 7 8 4 1 1 3 3 3 2 2 2 2 1 1 2 2 4 3 2 4 5 6 8 3 8 8 19 20 25 18 13
12 11 11 11 10 11 13 13 13 12 11 9 8 7 7 8 3 1 1 2 2 2 2 1 1 1 1 1 1 3 6 6 5 5 10 5 10 7 8 15 23 12 9 8 5
8 9 10 11 12 13 13 13 12 11 9 8 7 7 9 3 1 2 1 0 0 0 0 2 3 2 1 3 6 2 4 7 12 22 20 13 5 5 13 20 21 21 22 24 21
9 10 11 11 12 12 12 12 12 10 9 7 7 9 5 2 2 2 2 3 1 0 1 1 1 2 2 2 0 5 10 15 12 15 2 3 2 1 19 9 20 23 29 28 29
10 10 10 10 10 11 11 11 10 9 7 6 7 8 4 3 1 1 2 2 2 1 1 2 3 2 1 3 5 6 6 7 3 10 4 1 3 7 25 15 27 31 33 32 31
9 9 9 9 9 9 9 9 8 7 6 6 8 6 3 2 1 1 1 1 1 1 2 3 3 2 1 5 5 4 4 4 3 12 7 4 5 18 23 21 27 29 30 30 30
9 9 9 8 9 9 9 9 8 7 7 8 6 4 4 4 2 3 2 1 1 0 0 2 3 3 1 3 5 6 1 1 9 5 4 6 4 19 23 33 27 26 27 28 29
9 9 9 9 9 9 9 9 9 8 8 6 4 3 3 2 3 5 4 3 1 3 1 1 3 3 4 4 3 3 3 2 4 6 7 8 5 7 18 29 24 23 24 26 26
10 10 10 10 10 10 12 13 10 5 3 3 3 5 4 3 3 3 6 4 2 2 3 3 5 2 6 4 3 2 2 4 5 1 4 7 6 4 11 21 20 19 20 22 22
9 10 10 10 11 12 12 4 5 7 8 6 5 3 1 2 1 6 7 2 3 1 1 5 2 4 3 2 1 1 3 5 4 2 3 6 5 4 6 8 13 14 15 15 16
10 11 12 14 13 9 7 6 10 8 4 2 3 3 3 2 3 7 8 3 3 1 3 3 2 3 2 2 4 3 4 2 5 4 5 8 3 3 1 8 8 8 8 8 10
11 12 14 14 9 8 7 9 9 4 4 3 1 1 2 3 3 6 7 3 3 1 1 2 3 2 2 0 2 3 2 2 4 5 2 3 4 6 4 2 3 4 3 2 3
12 14 14 10 7 6 6 7 7 1 2 1 1 2 2 2 2 3 9 2 2 2 4 2 3 3 2 1 2 6 4 5 2 3 3 1 3 3 7 3 1 4 7 5 4
14 13 8 7 5 5 5 7 7 5 3 1 2 1 2 2 2 2 5 6 4 3 4 2 4 2 1 0 2 6 3 5 4 3 1 4 4 5 5 6 2 3 13 12 11
13 9 7 6 5 5 7 7 4 4 2 1 1 2 3 2 3 5 5 7 4 3 5 6 2 4 4 3 4 10 7 4 4 3 5 2 1 3 6 6 6 2 11 9 18
11 8 5 4 4 5 6 4 2 2 1 2 2 2 2 2 4 4 3 3 5 4 3 1 2 5 8 3 2 3 3 4 4 3 5 5 5 2 6 10 5 8 9 14 19
9 6 3 3 4 5 3 3 3 1 1 2 2 2 0 1 3 4 3 2 1 2 3 3 3 5 3 3 2 0 2 2 0 1 1 4 4 2 4 5 3 10 12 18 18
10 9 6 5 5 5 4 3 1 1 2 1 4 1 6 2 2 3 3 2 3 4 3 2 3 1 5 1 4 2 3 1 3 3 5 5 5 5 11 7 5 10 19 19 19
4 3 4 4 4 3 3 4 3 2 2 2 2 2 2 2 1 1 2 2 2 3 5 1 3 3 2 2 1 4 1 4 3 3 4 4 6 5 10 7 4 10 13 12 17
2 3 2 2 2 4 3 1 2 1 4 3 4 2 2 1 3 2 3 1 3 2 2 1 3 4 6 4 4 2 2 3 4 3 1 3 8 3 10 13 3 14 21 21 19
3 4 5 3 3 1 1 3 3 2 3 2 2 2 1 3 1 2 3 2 4 2 5 4 1 2 3 4 3 2 2 4 5 3 6 4 6 5 9 15 21 22 28 22 30
2 2 5 7 6 6 4 2 2 2 2 3 2 2 2 2 2 4 3 3 4 2 5 3 3 5 6 3 2 4 4 4 5 3 3 11 16 23 16 13 26 30 26 30 33
3 3 2 1 5 5 3 3 3 1 1 1 2 0 3 4 3 4 3 3 2 4 3 4 5 4 5 7 4 7 12 9 10 7 8 13 8 17 13 16 24 25 32 33 33
4 3 5 4 3 2 3 3 5 2 3 1 2 3 2 3 5 6 5 4 5 3 5 1 2 3 5 4 2 8 12 11 16 15 16 22 26 22 28 21 23 27 32 33 39
7 6 2 2 2 3 2 3 4 6 1 1 3 4 2 3 3 2 4 2 4 8 6 5 4 2 5 5 7 9 9 13 5 5 9 10 15 7 6 11 19 26 32 36 37

GFSSW_850_spd_036.txt.gz
Wind_Speed
10 11 12 13 13 11 11 9 9 12 13 12 11 8 5 3 2 3 2 1 2 2 1 1 0 2 2 3 3 3 4 0 2 3 3 6 6 3 9 6 7 12 13 15 13
11 12 14 14 12 11 10 9 10 12 12 11 10 6 4 2 3 3 1 3 3 3 2 1 1 2 2 3 3 5 3 3 3 2 3 7 5 10 5 14 11 21 17 10 8
14 15 14 13 9 10 9 9 11 12 11 10 8 6 4 4 3 2 2 2 2 2 2 2 2 4 3 3 4 2 3 3 2 4 5 7 8 9 9 6 13 10 13 12 4
15 14 13 10 9 10 9 11 12 11 10 8 7 5 4 5 3 1 2 1 1 1 1 2 2 3 3 2 3 2 1 1 4 6 10 7 10 17 23 7 13 18 19 15 15
12 12 9 7 9 9 10 11 12 10 9 7 5 5 6 3 2 2 2 2 1 2 2 1 3 2 2 2 4 1 3 7 10 14 7 4 14 14 17 14 16 19 22 26 26
10 9 7 8 10 11 11 11 11 9 7 6 4 6 4 3 3 2 2 3 2 2 3 3 3 2 1 1 1 4 7 11 6 7 11 4 11 6 11 13 19 22 26 26 26
10 10 9 10 10 11 10 10 9 7 6 5 5 7 3 4 1 0 1 2 3 3 2 3 3 1 1 1 4 4 6 5 6 8 4 2 7 9 4 17 22 25 26 26 27
10 9 10 10 10 10 10 9 7 7 6 5 7 6 3 2 1 1 1 1 2 2 3 4 4 2 1 3 5 4 5 3 3 11 7 4 2 10 9 17 22 24 26 26 26
10 10 11 11 10 9 9 8 7 7 7 7 6 3 3 4 2 4 3 2 1 2 2 3 3 3 2 4 5 7 1 2 6 8 2 7 2 7 10 19 20 20 21 22 22
11 11 10 10 10 10 10 10 9 9 7 6 4 3 2 2 4 5 4 3 2 2 2 2 3 3 4 4 3 1 1 2 4 5 9 7 4 3 9 15 15 16 17 18 19
10 10 10 10 10 11 12 13 9 5 3 2 3 5 5 4 3 3 5 3 2 3 3 4 5 2 4 3 2 2 1 3 4 1 6 3 5 2 5 9 10 11 12 14 15
9 10 10 10 11 12 13 4 4 7 7 6 4 4 3 3 2 6 5 2 3 2 1 5 1 2 2 2 2 1 2 4 3 3 5 4 3 2 2 1 4 6 7 8 8
10 11 12 13 13 11 9 4 8 8 4 2 3 4 3 2 3 8 6 3 4 2 3 3 1 1 1 2 3 2 3 2 3 4 5 6 2 5 3 3 2 1 1 2 4
10 11 13 14 9 8 7 8 8 3 4 2 1 1 2 4 4 5 7 3 4 2 1 1 4 1 2 1 3 3 2 1 2 1 3 4 5 5 5 4 3 3 4 5 6
10 13 14 10 6 6 6 9 6 0 2 2 1 2 2 3 4 4 8 3 3 2 4 1 3 4 2 0 2 6 2 2 1 4 2 2 2 5 6 4 3 3 7 6 8
13 12 9 6 6 5 6 7 5 5 3 1 1 1 3 3 3 2 4 5 4 3 3 2 3 1 1 1 1 4 2 5 4 3 1 2 4 4 6 7 4 0 7 5 8
14 8 7 6 5 5 6 7 5 3 2 0 1 2 2 3 4 5 5 7 3 2 3 5 2 5 4 2 4 8 6 4 5 4 5 1 0 7 7 8 8 3 3 9 10
11 6 5 4 4 5 7 4 1 2 2 2 2 2 2 3 3 4 3 2 4 3 3 2 3 4 7 2 1 4 4 4 4 3 5 4 6 5 7 16 10 3 5 9 10
8 5 4 3 4 4 2 3 3 1 1 1 2 2 0 0 4 4 2 2 0 2 2 3 4 4 3 2 2 1 4 3 2 1 1 3 6 3 3 6 8 3 8 8 7
8 6 4 4 5 5 4 3 2 1 0 1 5 0 4 1 1 2 1 0 1 3 1 3 2 1 4 1 7 3 4 2 3 3 5 5 6 5 10 11 7 5 8 12 11
5 4 4 4 5 2 3 4 2 2 2 0 4 2 1 2 2 2 3 2 1 1 2 2 2 2 1 3 2 3 1 4 3 4 4 3 6 5 14 14 8 8 9 16 17
1 3 2 4 2 3 2 1 1 1 3 3 3 2 3 3 2 2 5 0 3 2 2 2 3 3 3 1 2 1 2 4 4 4 1 3 8 4 7 18 11 6 19 25 15
4 4 5 5 2 1 0 3 3 2 3 2 2 1 1 3 1 2 3 1 3 2 3 3 1 3 4 4 3 2 3 4 5 3 6 5 6 3 2 6 11 16 23 21 24
3 2 3 4 6 6 4 1 1 2 2 2 2 1 2 1 3 4 3 1 2 4 7 3 2 5 6 3 1 4 4 4 5 3 4 9 13 12 7 8 17 25 25 26 34
2 2 2 0 3 5 3 4 4 3 2 2 1 1 3 3 1 2 2 2 2 3 3 3 2 2 4 6 4 6 10 8 10 6 7 18 7 20 7 7 20 22 24 31 30
2 3 5 4 3 2 1 4 6 2 4 2 3 3 2 4 5 6 5 4 5 2 3 2 2 2 5 2 1 6 14 14 17 15 14 21 25 21 22 11 14 19 27 30 34
6 6 2 1 2 2 2 4 4 5 1 1 3 4 2 3 3 2 5 3 5 8 6 5 4 2 5 4 7 7 8 12 5 6 7 8 10 2 1 7 15 22 29 32 35